{"data":{"norad_id":62207,"epoch":"2026-05-25T03:41:57.583680Z","epoch_age_seconds":57674,"freshness":"FRESH","line1":"1 62207U 24229R   26145.15413870  .00012474  00000+0  46193-3 0  9996","line2":"2 62207  42.9985 195.5960 0001423 273.8505  86.2184 15.27587021 82299","mean_motion":15.27587021,"eccentricity":0.0001423,"inclination_deg":42.9985,"raan_deg":195.596,"arg_perigee_deg":273.8505,"mean_anomaly_deg":86.2184,"bstar":0.00046193,"rev_number":8229,"period_min":94.266315450712,"perigee_km":482.05172893054,"apogee_km":484.00441651023,"semimajor_km":6861.1650727204,"source":"CELESTRAK","updated_at":"2026-05-25T13:38:19.609106Z"}}